sat.trackr.live / text

‹ back to catalog

XINGSHIDAI 21 (SCA-2)

NORAD 61232 · 2024-173F

PAYLOAD ACTIVE UNKNOWN

§ Identity

Operator
Country
PRC
Launch date
2024-09-24
Launch site
YSLA
Launch vehicle
Mass (kg)
RCS (m²)

External: N2YO · Heavens-Above · Gunter

§ Orbital elements

Epoch: 2026-08-05T06:01:56.633088Z

Period
88.59 min
Inclination
97.3283°
Eccentricity
0.0013406
Mean motion
16.25443156 rev/d
Perigee alt
196.0 km
Apogee alt
213.6 km
Semi-major
6,583.0 km
B*
1.0207e-3
RAAN
318.1952°
Arg perigee
275.4402°
Mean anomaly
84.5361°
Rev number
10,540

§ Raw data

XINGSHIDAI 21 (SCA-2)1 61232U 24173F   26217.25134992  .03027614  24229-5  10207-2 0  99932 61232  97.3283 318.1952 0013406 275.4402  84.5361 16.25443156105409

JSON: /api/v1/satellites/61232 · /tle

For live sub-satellite position, see the globe view (requires WebGL).

§ Visibility from observer

Set your observer location to see the next 7 days of passes ≥ 10°. The values pass through the URL so the page stays shareable.

No JS? Fill the form by hand. The geolocation button needs JavaScript.